�N����,����,�~����,�C��,���x,�C��,����,���ϕ���,�ő�u�ԕ���,�ő厞����,���˗�,�I�_���x,�n�����x,�ő啗���N��,DTYPE
"18/03/30","00:10",0.0,11.4,69.1,1015.4,314.8,3.1,5.9,324.1,0.00,6.0,13.0,"00:09:08",1
"18/03/30","00:20",0.0,11.3,68.2,1015.6,302.5,2.1,5.8,292.9,0.00,5.7,13.0,"00:18:40",1
"18/03/30","00:30",0.0,11.2,67.0,1015.6,306.2,2.1,4.0,340.2,0.00,5.3,12.7,"00:22:30",1
"18/03/30","00:40",0.0,11.1,65.5,1016.1,303.2,1.7,2.7,304.8,0.00,4.9,12.8,"00:30:52",1
"18/03/30","00:50",0.0,11.0,64.6,1016.6,292.9,2.2,4.2,313.8,0.00,4.6,12.7,"00:44:54",1
"18/03/30","01:00",0.0,10.7,64.5,1015.9,312.1,2.2,4.4,333.4,0.00,4.3,12.7,"00:50:16",1
"18/03/30","01:10",0.0,10.8,63.8,1016.1,316.2,3.1,6.0,347.3,0.00,4.3,12.7,"01:05:42",1
"18/03/30","01:20",0.0,10.7,63.7,1016.4,321.2,3.0,4.7,328.9,0.00,4.1,12.4,"01:14:14",1
"18/03/30","01:30",0.0,10.7,63.4,1016.4,315.9,3.0,5.5,330.6,0.00,4.1,12.3,"01:21:52",1
"18/03/30","01:40",0.0,10.7,62.7,1016.4,328.9,3.6,6.2,340.7,0.00,3.9,12.5,"01:34:52",1
"18/03/30","01:50",0.0,10.6,62.8,1015.9,317.8,3.6,5.1,330.0,0.00,3.9,12.3,"01:42:56",1
"18/03/30","02:00",0.0,10.4,63.3,1016.1,311.3,3.0,4.8,350.4,0.00,3.8,12.2,"01:55:18",1
"18/03/30","02:10",0.0,10.3,63.8,1015.9,314.1,3.1,4.9,330.1,0.00,3.8,12.2,"02:04:24",1
"18/03/30","02:20",0.0,10.3,63.6,1016.4,314.7,3.4,4.7,325.7,0.00,3.7,12.2,"02:17:04",1
"18/03/30","02:30",0.0,10.1,63.4,1016.4,311.0,2.6,4.0,302.2,0.00,3.5,12.2,"02:20:24",1
"18/03/30","02:40",0.0,9.9,63.5,1016.1,303.5,2.2,3.4,323.8,0.00,3.3,12.0,"02:39:22",1
"18/03/30","02:50",0.0,9.9,62.1,1016.4,308.4,2.6,4.4,328.1,0.00,3.0,12.0,"02:43:22",1
"18/03/30","03:00",0.0,9.8,60.4,1016.1,300.1,2.3,4.0,327.7,0.00,2.5,12.0,"02:51:20",1
"18/03/30","03:10",0.0,9.6,60.9,1016.4,303.2,1.8,3.3,315.0,0.00,2.5,11.9,"03:05:00",1
"18/03/30","03:20",0.0,9.1,63.3,1016.1,322.1,2.3,4.3,317.9,0.00,2.5,11.8,"03:18:32",1
"18/03/30","03:30",0.0,8.7,65.7,1016.4,319.2,1.8,3.2,339.6,0.00,2.7,11.6,"03:20:56",1
"18/03/30","03:40",0.0,8.0,69.4,1015.9,327.0,1.7,2.4,326.9,0.00,2.8,11.7,"03:37:14",1
"18/03/30","03:50",0.0,7.6,70.7,1016.1,332.3,2.2,3.6,333.7,0.00,2.7,11.6,"03:43:28",1
"18/03/30","04:00",0.0,7.2,71.9,1015.9,301.7,1.7,2.1,312.6,0.00,2.5,11.6,"03:52:40",1
"18/03/30","04:10",0.0,7.0,72.5,1016.1,323.8,2.2,3.1,316.1,0.00,2.4,11.4,"04:06:56",1
"18/03/30","04:20",0.0,6.7,73.8,1015.9,317.9,2.1,2.8,317.0,0.00,2.4,11.2,"04:16:46",1
"18/03/30","04:30",0.0,6.5,74.2,1015.9,319.5,1.8,2.4,333.2,0.00,2.3,11.2,"04:28:40",1
"18/03/30","04:40",0.0,6.3,74.4,1015.9,307.7,2.1,2.8,323.8,0.00,2.1,11.1,"04:35:44",1
"18/03/30","04:50",0.0,6.2,73.8,1016.1,310.2,2.3,2.7,303.4,0.00,1.9,11.0,"04:40:12",1
"18/03/30","05:00",0.0,6.5,73.6,1015.9,316.9,2.8,4.2,317.0,0.00,2.2,10.8,"04:58:08",1
"18/03/30","05:10",0.0,6.3,72.5,1016.4,316.8,2.7,3.5,321.0,0.00,1.8,11.0,"05:00:16",1
"18/03/30","05:20",0.0,6.2,74.5,1015.9,317.3,2.3,3.1,306.4,0.00,2.1,10.7,"05:19:44",1
"18/03/30","05:30",0.0,6.5,72.3,1016.4,313.9,2.3,3.9,327.7,0.00,1.9,10.7,"05:24:32",1
"18/03/30","05:40",0.0,6.7,71.8,1016.4,320.5,2.8,3.9,323.6,0.00,2.0,10.7,"05:36:50",1
"18/03/30","05:50",0.0,6.9,72.1,1016.6,305.7,2.5,3.7,319.2,0.00,2.3,10.8,"05:49:44",1
"18/03/30","06:00",0.0,6.9,70.0,1016.8,323.7,2.2,3.6,324.9,0.00,1.9,10.6,"05:58:12",1
"18/03/30","06:10",0.0,6.5,72.7,1016.8,321.9,2.7,3.5,329.8,0.00,2.0,10.5,"06:05:44",1
"18/03/30","06:20",0.0,6.6,73.6,1017.1,311.0,2.1,3.1,329.3,0.00,2.3,10.6,"06:16:38",1
"18/03/30","06:30",0.0,6.9,73.4,1017.1,315.8,2.0,2.8,332.7,0.00,2.5,10.4,"06:26:08",1
"18/03/30","06:40",0.0,7.5,73.5,1017.3,327.1,2.0,3.4,331.8,0.01,3.1,10.3,"06:38:16",1
"18/03/30","06:50",0.0,8.2,71.1,1017.3,323.7,2.1,2.8,328.2,0.01,3.3,10.5,"06:42:24",1
"18/03/30","07:00",0.0,8.7,69.3,1017.3,328.4,1.6,2.2,318.2,0.03,3.4,10.3,"06:51:28",1
"18/03/30","07:10",0.0,9.3,65.1,1017.8,332.0,1.6,2.7,326.5,0.04,3.1,10.2,"07:03:44",1
"18/03/30","07:20",0.0,10.3,63.2,1017.8,322.1,0.8,2.1,317.2,0.06,3.7,10.7,"07:11:12",1
"18/03/30","07:30",0.0,10.5,63.1,1018.0,302.0,0.7,2.1,322.8,0.08,3.8,10.8,"07:20:02",1
"18/03/30","07:40",0.0,10.8,56.7,1018.0,310.4,1.2,3.3,324.1,0.10,2.6,10.6,"07:37:20",1
"18/03/30","07:50",0.0,11.1,56.1,1018.0,342.2,1.8,4.0,339.9,0.13,2.7,10.7,"07:43:44",1
"18/03/30","08:00",0.0,11.6,53.3,1018.5,329.3,1.2,2.5,331.7,0.15,2.5,10.8,"07:56:48",1
"18/03/30","08:10",0.0,11.7,51.9,1018.5,356.6,1.6,2.8,287.4,0.18,2.2,11.1,"08:06:00",1
"18/03/30","08:20",0.0,12.0,51.0,1018.2,348.9,1.3,3.5,356.5,0.21,2.2,11.1,"08:18:08",1
"18/03/30","08:30",0.0,12.1,48.6,1019.0,347.1,1.3,4.0,352.6,0.24,1.6,11.3,"08:28:48",1
"18/03/30","08:40",0.0,12.6,46.9,1018.7,9.6,1.5,3.7,346.9,0.27,1.6,11.3,"08:38:00",1
"18/03/30","08:50",0.0,12.7,44.0,1018.7,351.4,1.5,3.7,5.6,0.29,0.8,11.5,"08:46:40",1
"18/03/30","09:00",0.0,12.9,43.2,1019.0,14.2,2.3,6.4,344.5,0.32,0.7,11.7,"08:54:24",1
"18/03/30","09:10",0.0,12.8,41.6,1019.2,16.2,2.3,6.5,27.6,0.35,0.1,11.8,"09:08:08",1
"18/03/30","09:20",0.0,13.6,41.2,1019.2,3.0,2.6,5.4,8.2,0.37,0.7,11.8,"09:15:36",1
"18/03/30","09:30",0.0,13.3,41.0,1019.2,354.2,2.7,5.1,6.1,0.40,0.4,12.2,"09:22:56",1
"18/03/30","09:40",0.0,13.5,39.0,1019.7,358.2,2.3,5.6,352.4,0.42,-0.1,12.2,"09:36:56",1
"18/03/30","09:50",0.0,14.0,37.7,1019.4,3.2,2.8,5.6,22.8,0.44,-0.2,12.5,"09:40:02",1
"18/03/30","10:00",0.0,13.8,36.5,1019.2,3.0,2.6,5.1,3.7,0.46,-0.8,12.6,"09:56:00",1
"18/03/30","10:10",0.0,13.8,36.4,1019.4,10.2,2.5,6.6,340.3,0.48,-0.8,12.8,"10:07:52",1
"18/03/30","10:20",0.0,14.3,36.8,1019.4,357.5,2.5,5.6,347.4,0.49,-0.2,12.9,"10:14:56",1
"18/03/30","10:30",0.0,14.4,34.5,1019.2,351.0,2.3,5.4,347.2,0.51,-1.0,13.2,"10:28:48",1
"18/03/30","10:40",0.0,14.6,34.1,1019.2,343.8,3.0,7.7,352.6,0.53,-1.0,13.3,"10:38:24",1
"18/03/30","10:50",0.0,15.1,35.6,1019.0,4.2,2.0,3.9,344.1,0.54,0.0,13.7,"10:40:48",1
"18/03/30","11:00",0.0,14.8,32.9,1019.0,7.2,2.1,4.5,17.3,0.55,-1.3,13.9,"10:54:00",1
"18/03/30","11:10",0.0,15.3,33.8,1019.0,358.4,2.2,5.8,329.3,0.56,-0.5,14.1,"11:09:28",1
"18/03/30","11:20",0.0,15.3,32.1,1019.0,336.0,3.0,6.4,338.5,0.57,-1.2,14.2,"11:16:08",1
"18/03/30","11:30",0.0,15.1,31.8,1018.7,344.9,3.4,7.0,330.2,0.58,-1.5,14.5,"11:23:28",1
"18/03/30","11:40",0.0,15.9,32.4,1018.5,343.8,1.7,4.4,347.5,0.59,-0.6,15.0,"11:30:08",1
"18/03/30","11:50",0.0,16.0,33.5,1018.7,337.9,2.3,5.0,332.3,0.59,0.0,15.1,"11:40:48",1
"18/03/30","12:00",0.0,15.9,31.6,1018.2,347.3,2.5,5.1,345.3,0.59,-0.9,15.2,"11:53:44",1
"18/03/30","12:10",0.0,15.5,31.3,1018.5,2.5,2.3,5.1,343.8,0.59,-1.4,15.2,"12:06:48",1
"18/03/30","12:20",0.0,16.0,33.4,1018.5,350.5,3.4,7.1,324.8,0.59,0.0,15.4,"12:10:02",1
"18/03/30","12:30",0.0,15.4,30.6,1018.0,338.3,3.1,7.0,340.7,0.59,-1.8,15.8,"12:21:12",1
"18/03/30","12:40",0.0,16.0,33.0,1017.5,336.5,3.2,7.5,334.4,0.59,-0.2,15.8,"12:38:32",1
"18/03/30","12:50",0.0,15.9,31.7,1017.5,330.4,3.9,7.8,337.3,0.59,-0.9,16.1,"12:40:32",1
"18/03/30","13:00",0.0,15.6,32.2,1017.3,323.0,3.6,8.7,339.0,0.58,-0.9,16.2,"12:58:56",1
"18/03/30","13:10",0.0,16.4,30.8,1017.8,338.8,3.1,6.2,328.9,0.58,-0.8,16.4,"13:07:36",1
"18/03/30","13:20",0.0,16.1,30.4,1017.5,329.0,3.2,7.4,355.2,0.57,-1.2,16.4,"13:12:48",1
"18/03/30","13:30",0.0,16.3,29.4,1017.5,326.2,3.0,6.4,328.1,0.56,-1.5,16.7,"13:22:40",1
"18/03/30","13:40",0.0,16.2,30.6,1017.3,341.1,3.7,7.3,341.4,0.55,-1.1,16.6,"13:32:16",1
"18/03/30","13:50",0.0,16.1,31.8,1017.1,339.1,3.9,6.6,331.5,0.54,-0.6,16.7,"13:40:02",1
"18/03/30","14:00",0.0,15.9,31.9,1017.1,327.5,3.9,7.3,335.4,0.52,-0.8,16.7,"13:58:56",1
"18/03/30","14:10",0.0,16.2,33.7,1016.8,337.9,3.1,7.8,343.2,0.51,0.3,16.9,"14:03:52",1
"18/03/30","14:20",0.0,16.2,33.1,1017.1,325.1,3.7,8.5,331.6,0.49,0.0,17.1,"14:11:12",1
"18/03/30","14:30",0.0,16.2,31.6,1017.1,340.2,4.0,7.1,343.2,0.47,-0.6,16.8,"14:22:40",1
"18/03/30","14:40",0.0,16.0,32.9,1017.1,339.5,4.5,8.9,337.6,0.46,-0.3,17.0,"14:30:16",1
"18/03/30","14:50",0.0,15.9,34.2,1017.3,338.4,3.5,7.8,337.1,0.44,0.2,16.8,"14:42:40",1
"18/03/30","15:00",0.0,15.8,33.8,1017.1,337.1,4.2,7.5,345.8,0.42,-0.1,16.8,"14:52:00",1
"18/03/30","15:10",0.0,15.4,34.2,1016.8,325.6,4.4,8.5,338.9,0.39,-0.3,16.8,"15:07:20",1
"18/03/30","15:20",0.0,15.6,34.2,1017.1,325.8,4.0,6.5,303.5,0.37,-0.1,16.7,"15:13:20",1
"18/03/30","15:30",0.0,15.0,34.5,1017.3,338.9,4.6,8.7,339.2,0.35,-0.5,16.6,"15:20:56",1
"18/03/30","15:40",0.0,15.0,33.4,1017.1,343.3,3.9,8.7,20.9,0.32,-0.9,16.5,"15:30:02",1
"18/03/30","15:50",0.0,14.9,34.6,1017.5,328.9,4.5,7.0,358.6,0.30,-0.5,16.5,"15:44:16",1
"18/03/30","16:00",0.0,14.5,35.0,1017.5,338.4,4.5,8.7,324.0,0.27,-0.7,16.2,"15:57:44",1
"18/03/30","16:10",0.0,14.2,34.9,1017.3,333.8,5.2,8.8,326.6,0.24,-1.0,16.1,"16:00:16",1
"18/03/30","16:20",0.0,14.0,35.5,1017.5,345.9,4.0,9.1,340.1,0.22,-1.0,16.0,"16:14:48",1
"18/03/30","16:30",0.0,13.7,37.4,1017.8,346.5,4.2,6.8,336.8,0.19,-0.5,15.7,"16:21:44",1
"18/03/30","16:40",0.0,13.5,38.5,1018.0,338.8,3.6,6.7,358.4,0.16,-0.3,15.8,"16:37:52",1
"18/03/30","16:50",0.0,13.3,38.1,1018.2,338.8,3.5,7.0,346.9,0.13,-0.6,15.6,"16:49:52",1
"18/03/30","17:00",0.0,13.1,39.1,1017.8,332.3,4.1,7.3,337.8,0.11,-0.5,15.3,"16:51:52",1
"18/03/30","17:10",0.0,12.8,39.3,1018.0,331.6,3.9,6.3,335.4,0.08,-0.7,15.2,"17:09:06",1
"18/03/30","17:20",0.0,12.5,40.6,1017.8,334.2,4.0,6.8,339.5,0.06,-0.5,15.1,"17:16:18",1
"18/03/30","17:30",0.0,12.0,42.7,1017.8,328.4,4.6,8.0,332.7,0.04,-0.2,14.9,"17:24:26",1
"18/03/30","17:40",0.0,11.5,43.7,1017.8,335.1,5.4,9.1,338.6,0.03,-0.4,14.8,"17:31:16",1
"18/03/30","17:50",0.0,11.2,45.1,1017.5,333.6,5.5,8.7,337.7,0.01,-0.2,14.4,"17:49:26",1
"18/03/30","18:00",0.0,10.8,47.2,1017.3,335.4,5.6,9.7,334.6,0.00,0.0,14.3,"17:53:06",1
"18/03/30","18:10",0.0,10.5,48.8,1017.5,331.4,5.2,11.2,333.0,0.00,0.2,14.1,"18:03:40",1
"18/03/30","18:20",0.0,10.2,49.7,1017.5,334.4,5.9,9.8,330.6,0.00,0.2,13.9,"18:10:50",1
"18/03/30","18:30",0.0,10.0,51.0,1017.8,334.0,4.9,8.0,340.1,0.00,0.4,13.8,"18:22:10",1
"18/03/30","18:40",0.0,9.7,51.7,1017.8,332.1,5.1,9.8,346.5,0.00,0.3,13.7,"18:31:48",1
"18/03/30","18:50",0.0,9.5,52.4,1017.8,333.1,5.7,8.6,339.6,0.00,0.3,13.5,"18:47:38",1
"18/03/30","19:00",0.0,9.4,52.6,1017.5,329.8,5.6,11.2,336.9,0.00,0.2,13.3,"18:51:36",1
"18/03/30","19:10",0.0,9.2,53.8,1018.2,331.5,4.7,7.4,333.8,0.00,0.4,13.1,"19:01:04",1
"18/03/30","19:20",0.0,8.9,55.0,1018.0,334.6,4.4,7.2,336.5,0.00,0.4,12.9,"19:13:12",1
"18/03/30","19:30",0.0,8.8,56.0,1018.5,337.1,4.4,7.4,348.8,0.00,0.6,12.8,"19:26:08",1
"18/03/30","19:40",0.0,8.7,56.4,1018.5,333.8,3.9,8.2,309.4,0.00,0.6,12.6,"19:30:56",1
"18/03/30","19:50",0.0,8.6,57.2,1018.5,335.8,3.4,5.6,344.2,0.00,0.7,12.6,"19:42:16",1
"18/03/30","20:00",0.0,8.5,58.2,1018.5,336.1,4.5,7.5,338.9,0.00,0.8,12.4,"19:55:28",1
"18/03/30","20:10",0.0,8.4,58.9,1018.7,332.9,3.6,9.3,323.0,0.00,0.9,12.3,"20:04:32",1
"18/03/30","20:20",0.0,8.4,59.2,1019.2,341.6,2.7,5.8,343.0,0.00,0.9,12.5,"20:13:36",1
"18/03/30","20:30",0.0,8.2,59.9,1019.0,337.1,2.5,5.0,354.7,0.00,0.9,12.1,"20:25:44",1
"18/03/30","20:40",0.0,8.0,61.1,1018.7,330.9,1.8,5.0,340.1,0.00,1.0,12.2,"20:32:24",1
"18/03/30","20:50",0.0,8.1,61.6,1018.7,331.9,2.8,5.2,340.8,0.00,1.2,12.1,"20:45:52",1
"18/03/30","21:00",0.0,7.9,61.5,1019.2,336.4,2.1,4.4,334.1,0.00,1.0,11.9,"20:52:56",1
"18/03/30","21:10",0.0,7.2,62.5,1019.2,324.3,2.1,3.3,337.6,0.00,0.6,11.9,"21:02:32",1
"18/03/30","21:20",0.0,6.6,65.7,1019.2,292.7,1.8,2.7,326.9,0.00,0.7,11.7,"21:12:32",1
"18/03/30","21:30",0.0,6.1,67.7,1018.7,304.7,2.2,2.8,309.6,0.00,0.6,11.6,"21:21:36",1
"18/03/30","21:40",0.0,5.8,69.1,1018.7,298.6,2.2,3.2,310.7,0.00,0.6,11.5,"21:35:04",1
"18/03/30","21:50",0.0,5.5,71.6,1019.0,296.0,2.1,2.4,306.9,0.00,0.8,11.4,"21:41:52",1
"18/03/30","22:00",0.0,5.5,72.6,1018.5,287.3,2.2,2.6,310.0,0.00,1.0,11.4,"21:54:02",1
"18/03/30","22:10",0.0,5.5,73.1,1018.5,293.8,2.2,2.7,315.4,0.00,1.1,11.2,"22:07:06",1
"18/03/30","22:20",0.0,5.8,73.3,1018.5,310.2,3.1,5.1,332.4,0.00,1.4,11.2,"22:17:26",1
"18/03/30","22:30",0.0,6.4,71.6,1018.7,316.3,3.7,5.9,319.7,0.00,1.7,10.9,"22:25:46",1
"18/03/30","22:40",0.0,6.5,70.8,1018.7,321.5,3.4,5.4,341.5,0.00,1.6,11.0,"22:39:28",1
"18/03/30","22:50",0.0,6.6,69.9,1018.5,314.9,3.7,5.1,324.9,0.00,1.5,11.0,"22:42:56",1
"18/03/30","23:00",0.0,6.4,69.7,1019.0,299.5,2.3,4.0,299.3,0.00,1.3,10.8,"22:50:24",1
"18/03/30","23:10",0.0,6.0,70.5,1018.5,301.6,1.7,2.7,319.2,0.00,1.1,10.8,"23:09:40",1
"18/03/30","23:20",0.0,5.7,71.9,1019.0,311.3,2.6,3.6,330.2,0.00,1.1,10.6,"23:18:30",1
"18/03/30","23:30",0.0,5.2,74.4,1018.7,325.7,2.3,3.1,325.3,0.00,1.1,10.5,"23:20:10",1
"18/03/30","23:40",0.0,5.0,76.4,1018.7,322.9,2.5,3.1,330.5,0.00,1.2,10.3,"23:32:46",1
"18/03/30","23:50",0.0,4.9,77.8,1018.5,304.3,2.3,2.9,325.1,0.00,1.4,10.2,"23:40:48",1
"18/03/30","24:00",0.0,5.9,75.8,1018.7,317.3,4.0,5.5,317.5,0.00,2.0,10.3,"23:55:44",1
